When you browse on this site, cookies collect data to enhance your experience and personalize the content and advertising you see.
Visit our Privacy Policy to learn more. By continuing to use the site, you agree to this use of cookies and data.
  • In Netherlands
  • List of Countries
  • For 7 days
  • Water Temperature
  • Satellite Maps
  • Weather Map
  • Weather Widgets
  • user-avatar
    Login

    Hourly Weather Nuernberg

    Today, 10 December, Monday

    Time Temperature Precipitation Wind Pressure Humidity
    00:00 +3°C° 0.2 mm 6 mps 730 mmHg 82%
    01:00 +3°C° 0 mm 6 mps 731 mmHg 80%
    02:00 +3°C° 0.1 mm 6 mps 732 mmHg 81%
    03:00 +2°C° 0.1 mm 6 mps 732 mmHg 82%
    04:00 +2°C° 0.1 mm 6 mps 733 mmHg 83%
    05:00 +2°C° 0.2 mm 6 mps 733 mmHg 83%
    06:00 +1°C° 0.2 mm 6 mps 734 mmHg 83%
    07:00 +1°C° 0 mm 5 mps 734 mmHg 84%
    08:00 +1°C° 0.1 mm 6 mps 735 mmHg 83%
    09:00 +1°C° 0.1 mm 6 mps 735 mmHg 82%
    10:00 0°C° 0.1 mm 7 mps 735 mmHg 81%
    11:00 +2°C° 0.2 mm 7 mps 736 mmHg 78%
    12:00 +2°C° 0.2 mm 7 mps 736 mmHg 76%
    13:00 +2°C° 0.2 mm 7 mps 736 mmHg 74%
    14:00 +2°C° 0.3 mm 6 mps 736 mmHg 76%
    15:00 +2°C° 0.3 mm 6 mps 736 mmHg 78%
    16:00 +2°C° 0.3 mm 5 mps 735 mmHg 80%
    17:00 +1°C° 0.6 mm 5 mps 735 mmHg 81%
    18:00 +1°C° 0.6 mm 5 mps 735 mmHg 81%
    19:00 +1°C° 0.6 mm 5 mps 735 mmHg 82%
    20:00 0°C° 0.1 mm 5 mps 736 mmHg 83%
    21:00 0°C° 0.1 mm 4 mps 736 mmHg 84%
    22:00 -1°C° 0.1 mm 4 mps 736 mmHg 85%
    23:00 -1°C° 0 mm 5 mps 736 mmHg 85%

    Tomorrow, 11 December, Tuesday

    Time Temperature Precipitation Wind Pressure Humidity
    00:00 -1°C° 0 mm 5 mps 736 mmHg 85%
    01:00 -1°C° 0 mm 5 mps 736 mmHg 85%
    02:00 -1°C° 0 mm 5 mps 736 mmHg 85%
    03:00 -1°C° 0 mm 6 mps 736 mmHg 86%
    04:00 -1°C° 0 mm 6 mps 736 mmHg 86%
    05:00 -1°C° 0.1 mm 6 mps 736 mmHg 86%
    06:00 -1°C° 0.1 mm 6 mps 736 mmHg 87%
    07:00 -1°C° 0.1 mm 6 mps 736 mmHg 87%
    08:00 -1°C° 0.1 mm 6 mps 736 mmHg 86%
    09:00 -1°C° 0.1 mm 6 mps 737 mmHg 85%
    10:00 -1°C° 0.1 mm 6 mps 737 mmHg 85%
    11:00 -1°C° 0.1 mm 6 mps 737 mmHg 84%
    12:00 +1°C° 0.1 mm 6 mps 737 mmHg 84%
    13:00 +1°C° 0.1 mm 6 mps 736 mmHg 83%
    14:00 +1°C° 0.1 mm 5 mps 736 mmHg 83%
    15:00 +1°C° 0.1 mm 5 mps 736 mmHg 83%
    16:00 +1°C° 0.1 mm 5 mps 736 mmHg 84%
    17:00 0°C° 0.1 mm 5 mps 737 mmHg 85%
    18:00 0°C° 0.1 mm 5 mps 737 mmHg 86%
    19:00 0°C° 0.1 mm 4 mps 737 mmHg 87%
    20:00 0°C° 0.1 mm 4 mps 737 mmHg 88%
    21:00 -1°C° 0.1 mm 4 mps 737 mmHg 90%
    22:00 -1°C° 0.1 mm 4 mps 737 mmHg 91%
    23:00 0°C° 0.1 mm 3 mps 737 mmHg 92%

    Day after tomorrow, 12 December, Wednesday

    Time Temperature Precipitation Wind Pressure Humidity
    00:00 0°C° 0.1 mm 3 mps 737 mmHg 92%
    01:00 0°C° 0.1 mm 3 mps 737 mmHg 93%
    02:00 0°C° 0.1 mm 3 mps 737 mmHg 93%
    03:00 0°C° 0.1 mm 3 mps 737 mmHg 94%
    04:00 +1°C° 0.1 mm 2 mps 737 mmHg 94%
    05:00 +1°C° 0.1 mm 2 mps 737 mmHg 94%
    06:00 +1°C° 0.1 mm 2 mps 737 mmHg 94%
    07:00 +1°C° 0.1 mm 1 mps 737 mmHg 94%
    08:00 +2°C° 0 mm 1 mps 737 mmHg 93%
    09:00 +2°C° 0 mm 1 mps 737 mmHg 92%
    10:00 +2°C° 0 mm 1 mps 738 mmHg 90%
    11:00 +2°C° 0 mm 1 mps 737 mmHg 86%
    12:00 +3°C° 0 mm 1 mps 737 mmHg 83%
    13:00 +3°C° 0 mm 1 mps 737 mmHg 79%
    14:00 +3°C° 0 mm 1 mps 737 mmHg 82%
    15:00 +2°C° 0 mm 1 mps 736 mmHg 84%
    16:00 +2°C° 0 mm 1 mps 736 mmHg 87%
    17:00 +1°C° 0 mm 1 mps 736 mmHg 88%
    18:00 +1°C° 0 mm 1 mps 736 mmHg 90%
    19:00 0°C° 0 mm 1 mps 736 mmHg 91%
    20:00 0°C° 0 mm 1 mps 736 mmHg 91%
    21:00 0°C° 0 mm 1 mps 736 mmHg 92%
    22:00 0°C° 0 mm 1 mps 736 mmHg 93%
    23:00 0°C° 0 mm 1 mps 736 mmHg 93%

    13 December, Thursday

    Time Temperature Precipitation Wind Pressure Humidity
    00:00 -1°C° 0 mm 1 mps 736 mmHg 93%
    01:00 -1°C° 0 mm 1 mps 736 mmHg 93%
    02:00 -1°C° 0 mm 1 mps 735 mmHg 93%
    03:00 -3°C° 0 mm 2 mps 735 mmHg 93%
    04:00 -3°C° 0 mm 2 mps 735 mmHg 92%
    05:00 -3°C° 0 mm 2 mps 735 mmHg 92%
    06:00 -3°C° 0 mm 2 mps 734 mmHg 91%
    07:00 -3°C° 0 mm 2 mps 734 mmHg 91%
    08:00 -3°C° 0 mm 2 mps 734 mmHg 88%
    09:00 -2°C° 0 mm 3 mps 734 mmHg 86%
    10:00 -2°C° 0 mm 3 mps 734 mmHg 84%
    11:00 -1°C° 0 mm 3 mps 733 mmHg 82%
    12:00 -1°C° 0 mm 3 mps 733 mmHg 79%
    13:00 0°C° 0 mm 3 mps 733 mmHg 77%
    14:00 -1°C° 0 mm 3 mps 732 mmHg 79%
    15:00 -1°C° 0 mm 3 mps 732 mmHg 82%
    16:00 -2°C° 0 mm 3 mps 732 mmHg 84%
    17:00 -2°C° 0 mm 3 mps 732 mmHg 85%
    18:00 -4°C° 0 mm 3 mps 732 mmHg 87%
    19:00 -4°C° 0 mm 4 mps 732 mmHg 88%
    20:00 -5°C° 0 mm 3 mps 732 mmHg 87%
    21:00 -5°C° 0 mm 3 mps 733 mmHg 87%
    22:00 -5°C° 0 mm 3 mps 733 mmHg 87%
    23:00 -5°C° 0 mm 3 mps 733 mmHg 86%

    14 December, Friday

    Time Temperature Precipitation Wind Pressure Humidity
    00:00 -5°C° 0 mm 3 mps 733 mmHg 86%
    01:00 -5°C° 0 mm 3 mps 733 mmHg 85%
    02:00 -4°C° 0 mm 2 mps 733 mmHg 85%
    03:00 -4°C° 0 mm 2 mps 733 mmHg 85%
    04:00 -4°C° 0 mm 2 mps 734 mmHg 85%
    05:00 -4°C° 0 mm 2 mps 734 mmHg 84%
    06:00 -4°C° 0 mm 2 mps 734 mmHg 84%
    07:00 -4°C° 0 mm 2 mps 735 mmHg 83%
    08:00 -4°C° 0 mm 2 mps 735 mmHg 81%
    09:00 -3°C° 0 mm 2 mps 736 mmHg 80%
    10:00 -3°C° 0 mm 2 mps 736 mmHg 78%
    11:00 -2°C° 0 mm 2 mps 737 mmHg 76%
    12:00 -1°C° 0 mm 2 mps 737 mmHg 73%
    13:00 -1°C° 0 mm 2 mps 737 mmHg 71%
    14:00 +1°C° 0 mm 1 mps 738 mmHg 74%
    15:00 +1°C° 0 mm 1 mps 738 mmHg 78%
    16:00 0°C° 0 mm 1 mps 739 mmHg 81%
    17:00 0°C° 0 mm 1 mps 739 mmHg 83%
    18:00 -1°C° 0 mm 1 mps 739 mmHg 86%
    19:00 -1°C° 0 mm 1 mps 740 mmHg 88%
    20:00 -1°C° 0 mm 1 mps 740 mmHg 89%
    21:00 -1°C° 0 mm 1 mps 741 mmHg 90%
    22:00 -2°C° 0 mm 1 mps 741 mmHg 91%
    23:00 -1°C° 0 mm 1 mps 741 mmHg 91%

    15 December, Saturday

    Time Temperature Precipitation Wind Pressure Humidity
    00:00 -1°C° 0 mm 1 mps 741 mmHg 91%
    01:00 -1°C° 0 mm 1 mps 742 mmHg 91%
    02:00 -1°C° 0 mm 1 mps 742 mmHg 92%
    03:00 -1°C° 0 mm 1 mps 742 mmHg 92%
    04:00 -1°C° 0 mm 1 mps 743 mmHg 92%
    05:00 -1°C° 0 mm 1 mps 743 mmHg 92%
    06:00 -1°C° 0 mm 1 mps 743 mmHg 93%
    07:00 -1°C° 0 mm 1 mps 743 mmHg 93%
    08:00 0°C° 0 mm 1 mps 743 mmHg 91%
    09:00 +1°C° 0 mm 1 mps 743 mmHg 89%
    10:00 +1°C° 0 mm 1 mps 743 mmHg 87%
    11:00 +2°C° 0 mm 1 mps 743 mmHg 85%
    12:00 +3°C° 0 mm 1 mps 743 mmHg 83%
    13:00 +4°C° 0 mm 1 mps 743 mmHg 82%
    14:00 +3°C° 0 mm 1 mps 743 mmHg 85%
    15:00 +3°C° 0 mm 1 mps 743 mmHg 88%
    16:00 +2°C° 0 mm 1 mps 743 mmHg 91%
    17:00 +1°C° 0 mm 2 mps 743 mmHg 92%
    18:00 -1°C° 0 mm 2 mps 743 mmHg 92%
    19:00 -1°C° 0 mm 2 mps 743 mmHg 93%
    20:00 -1°C° 0 mm 2 mps 742 mmHg 93%
    21:00 -1°C° 0 mm 2 mps 742 mmHg 92%
    22:00 -1°C° 0 mm 2 mps 742 mmHg 92%
    23:00 -1°C° 0 mm 2 mps 742 mmHg 91%
    Show more